Darstellungsparameter: Aktuell verwendete Einstellungen:
Skalierung der Graphiken ... ?
xyx+y,   Skalierungsfaktor:      Skalierung: Modus: x, Faktor: 1
Darstellungszeitraum ... ?
Vom - - bis: - -   Zeitraum: 25.04.2010 - 24.04.2020
Min/Max/Avg-Anzeige ... ?
Zeige MMA aktuell
Zeige MMA Monat
Zeige MMA alles
Zeige --A aktuell
Zeige --A Monat
Zeige --A alles
Keine MMA-Anzeige
MMA:
Keine MMA-Graphiken
MMA-Basis: 25.04.2010 - 24.04.2020
Quicknavigation für Darstellung... ?
Tage:      1T, 2T, 3T, 5T -1T -2T -3T -5T +1T +2T +3T +5T
Wochen: 1W, 2W, 3W -1W -2W -3W +1W +2W +3W
Monate: 1M, 3M, 6M -1M -3M -6M +1M +3M +6M
Jahre:    1J, 3J, 5J, 10J -1J -3J -5J -10J +1J +3J +5J +10J
Nutze für die Darstellung ... ?
Originaldaten oder ...
Mittelwerte Minima Maxima auf...
Stundenbasis Tagesbasis Wochenbasis
Monatsbasis Jahresbasis      Datenbasis: Maxima auf Monatsbasis
Darstellen als:
Statistik (Auto) Statistik J:M      Darstellung:
Zur Graphik,    zurück zur Übersicht aller Sensoren.
 
Tabellarische Datenbersicht: ?
 
Sensor: Nr:Datum:Temp:Feuchte:
Aussen-T/F 1 01-04-2010 00:00:00 30.2 C 93 %
2 01-05-2010 00:00:00 30.2 C 95 %
3 01-06-2010 00:00:00 34.2 C 95 %
4 01-07-2010 00:00:00 36 C 95 %
5 01-08-2010 00:00:00 32.8 C 95 %
6 01-09-2010 00:00:00 28 C 95 %
7 01-10-2010 00:00:00 26.1 C 95 %
8 01-11-2010 00:00:00 18.7 C 94 %
9 01-12-2010 00:00:00 5.5 C 94 %
10 01-01-2011 00:00:00 14.7 C 94 %
11 01-02-2011 00:00:00 15.2 C 93 %
12 01-03-2011 00:00:00 25.3 C 92 %
13 01-04-2011 00:00:00 32.5 C 93 %
14 01-05-2011 00:00:00 33.8 C 92 %
15 01-06-2011 00:00:00 35.7 C 91 %
16 01-07-2011 00:00:00 33.4 C 92 %
17 01-08-2011 00:00:00 33.5 C 93 %
18 01-09-2011 00:00:00 33 C 92 %
19 01-10-2011 00:00:00 30.3 C 95 %
20 01-11-2011 00:00:00 15.2 C 95 %
21 01-12-2011 00:00:00 12.5 C 97 %
22 01-01-2012 00:00:00 14 C 97 %
23 01-02-2012 00:00:00 12.7 C 96 %
24 01-03-2012 00:00:00 22.8 C 97 %
25 01-04-2012 00:00:00 29 C 98 %
Sensor: Nr:Datum:Temp:Feuchte:
Aussen-T/F 26 01-05-2012 00:00:00 29.4 C 98 %
27 01-06-2012 00:00:00 30.3 C 98 %
28 01-07-2012 00:00:00 34 C 98 %
29 01-08-2012 00:00:00 36.9 C 98 %
30 01-09-2012 00:00:00 30.3 C 98 %
31 01-10-2012 00:00:00 20.4 C 100 %
32 01-11-2012 00:00:00 14.9 C 98 %
33 01-12-2012 00:00:00 13.5 C 98 %
34 01-01-2013 00:00:00 13.6 C 96 %
35 01-02-2013 00:00:00 9.4 C 100 %
36 01-03-2013 00:00:00 17.3 C 97 %
37 01-04-2013 00:00:00 27.3 C 97 %
38 01-05-2013 00:00:00 25.8 C 98 %
39 01-06-2013 00:00:00 33.5 C 98 %
40 01-07-2013 00:00:00 33.9 C 98 %
41 01-08-2013 00:00:00 35.9 C 100 %
42 01-09-2013 00:00:00 30.8 C 100 %
43 01-10-2013 00:00:00 21.8 C 100 %
44 01-11-2013 00:00:00 16.4 C 100 %
45 01-12-2013 00:00:00 14.2 C 100 %
46 01-01-2014 00:00:00 13.6 C 100 %
47 01-02-2014 00:00:00 14.3 C 100 %
48 01-03-2014 00:00:00 23.2 C 98 %
49 01-04-2014 00:00:00 27.1 C 100 %
50 01-05-2014 00:00:00 30.1 C 100 %
Sensor: Nr:Datum:Temp:Feuchte:
Aussen-T/F 51 01-06-2014 00:00:00 35.4 C 100 %
52 01-07-2014 00:00:00 34.9 C 100 %
53 01-08-2014 00:00:00 29.4 C 100 %
54 01-09-2014 00:00:00 25.1 C 100 %
55 01-10-2014 00:00:00 20.6 C 100 %
56 01-11-2014 00:00:00 16.2 C 100 %
57 01-12-2014 00:00:00 14 C 100 %
58 01-01-2015 00:00:00 15.4 C 100 %
59 01-02-2015 00:00:00 11.7 C 100 %
60 01-03-2015 00:00:00 18.7 C 98 %
61 01-04-2015 00:00:00 27 C 98 %
62 01-05-2015 00:00:00 28.3 C 100 %
63 01-06-2015 00:00:00 35.1 C 100 %
64 01-07-2015 00:00:00 38.6 C 100 %
65 01-08-2015 00:00:00 37.5 C 97 %
66 01-09-2015 00:00:00 23.7 C 98 %
67 01-10-2015 00:00:00 19.8 C 98 %
68 01-11-2015 00:00:00 18.5 C 98 %
69 01-12-2015 00:00:00 14.4 C 99 %
70 01-01-2016 00:00:00 13 C 98 %
71 01-02-2016 00:00:00 13.6 C 97 %
72 01-03-2016 00:00:00 17.1 C 97 %
73 01-04-2016 00:00:00 23.2 C 98 %
74 01-05-2016 00:00:00 28.9 C 98 %
75 01-06-2016 00:00:00 35 C 98 %
Sensor: Nr:Datum:Temp:Feuchte:
Aussen-T/F 76 01-07-2016 00:00:00 35.4 C 97 %
77 01-08-2016 00:00:00 35 C 97 %
78 01-09-2016 00:00:00 31.3 C 97 %
79 01-10-2016 00:00:00 17.7 C 98 %
80 01-11-2016 00:00:00 14.4 C 98 %
81 01-12-2016 00:00:00 11.1 C 97 %
82 01-01-2017 00:00:00 7.2 C 98 %
83 01-02-2017 00:00:00 14.2 C 98 %
84 01-03-2017 00:00:00 23.3 C 98 %
85 01-04-2017 00:00:00 25.3 C 96 %
86 01-05-2017 00:00:00 35.6 C 98 %
87 01-06-2017 00:00:00 34.6 C 97 %
88 01-07-2017 00:00:00 34.2 C 97 %
89 01-08-2017 00:00:00 29.1 C 98 %
90 01-09-2017 00:00:00 24.3 C 98 %
91 01-10-2017 00:00:00 19.3 C 99 %
92 01-11-2017 00:00:00 15.2 C 98 %
93 01-12-2017 00:00:00 13.9 C 98 %
94 01-01-2018 00:00:00 13 C 98 %
95 01-02-2018 00:00:00 6.3 C 98 %
96 01-03-2018 00:00:00 14.9 C 98 %
97 01-04-2018 00:00:00 30.2 C 97 %
98 01-05-2018 00:00:00 31.4 C 97 %
99 01-06-2018 00:00:00 32.9 C 97 %
100 01-07-2018 00:00:00 38.2 C 97 %
Sensor: Nr:Datum:Temp:Feuchte:
Aussen-T/F 101 01-08-2018 00:00:00 38.4 C 96 %
102 01-09-2018 00:00:00 31.1 C 98 %
103 01-10-2018 00:00:00 23.9 C 98 %
104 01-11-2018 00:00:00 18.4 C 98 %
105 01-12-2018 00:00:00 14 C 98 %
106 01-01-2019 00:00:00 9.6 C 97 %
107 01-02-2019 00:00:00 17.9 C 98 %
108 01-03-2019 00:00:00 21.7 C 97 %
109 01-04-2019 00:00:00 26.6 C 98 %
110 01-05-2019 00:00:00 28.1 C 97 %
111 01-06-2019 00:00:00 37.9 C 98 %
112 01-07-2019 00:00:00 40.4 C 98 %
113 01-08-2019 00:00:00 34.3 C 98 %
114 01-09-2019 00:00:00 27.3 C 97 %
115 01-10-2019 00:00:00 22.4 C 99 %
116 01-11-2019 00:00:00 16.2 C 98 %
117 01-12-2019 00:00:00 14.3 C 98 %
118 01-01-2020 00:00:00 14.6 C 98 %
119 01-02-2020 00:00:00 18.1 C 98 %
120 01-03-2020 00:00:00 19.1 C 98 %
121 01-04-2020 00:00:00 26.2 C 96 %

Maximal/Minimal-Werte vom 25.04.2010 - 24.04.2020

Sensor Min Max Avg
Temp
(Aussen-T/F)
-15.3 °C
07-02-2012  08:00:00
40.4 °C
25-07-2019  16:20:00
10.94 °C
Feuchte
(Aussen-T/F)
18 %
17-07-2015  15:55:00
100 %
07-10-2012  03:05:00
81.47 %

Warnung:
When displaying minima or maxima values for days, weeks, months or years no virtual sensors will be displayed.



Die Daten stammen von einer Davis Vantage Pro 2 Wetter-Station und werden unter Linux mit der Software wview2wettercgi und aufbereitet. Alle Angaben erfolgen ohne Gewähr für ihre Vollständigkeit oder Richtigkeit.
Kontakt: Rainer Krienke krienke@uni-koblenz.de . Meine Webseiten an der Uni Koblenz oder privat.
Version: $Revision: 0.78 $